Skip Page Navigation
NASA JPL Caltech
NASA Logo - Jet Propulsion Laboratory + View the NASA Portal
+ Near-Earth Object (NEO) Program
Search JPL
JPL Home Earth Solar System Stars & Galaxies Technology
JPL Solar System Dynamics
BODIES ORBITS EPHEMERIDES TOOLS PHYSICAL DATA DISCOVERY FAQ SITE MAP
JPL Small-Body Database Browser
Search: [ help ]  
(2007 VA85)
Classification: Amor [NEO]          SPK-ID: 3393895
Ephemeris | Orbit Diagram | Orbital Elements | Physical Parameters | Close-Approach Data ]

[ show orbit diagram ]
Orbital Elements at Epoch 2456800.5 (2014-May-23.0) TDB
Reference: JPL 12 (heliocentric ecliptic J2000)
 Element Value Uncertainty (1-sigma)   Units 
e .7358508392625825 3.9435e-05  
a 4.225955015147925 0.00073584 AU
q 1.116282470565405 2.8568e-05 AU
i 131.8782666033133 0.00042857 deg
node 115.5633135370644 0.00071159 deg
peri 26.12854446092939 0.0031945 deg
M 282.4520173371521 0.07382 deg
tp 2457484.023948119020
(2016-Apr-05.52394812)
0.82919 JED
period 3173.114410888925
8.69
0.82877
0.002269
d
yr
n .1134532050797212 2.9632e-05 deg/d
Q 7.335627559730447 0.0012773 AU
  Orbit Determination Parameters
   # obs. used (total)      83  
   data-arc span      231 days  
   first obs. used      2007-11-04  
   last obs. used      2008-06-22  
   planetary ephem.      DE431  
   SB-pert. ephem.      SB431-BIG16  
   condition code      5  
   fit RMS      .65301  
   data source      ORB  
   producer      Otto Matic  
   solution date      2013-Aug-05 10:46:45  

Additional Information
 Earth MOID = .176873 AU 
 T_jup = 0.417 
[ show covariance matrix ]

Ephemeris | Orbit Diagram | Orbital Elements | Physical Parameters | Close-Approach Data ]

Physical Parameter Table
Parameter Symbol Value Units Sigma Reference Notes
absolute magnitude H 15.1 mag n/a MPO140717  

[ hide close-approach data ]
Close-Approach Data   ...sorted by Date/Time (TDB)
Date/Time (TDB) Time Uncertainty
(days_HH:MM)
Body Nominal Distance (AU) Minimum Distance (AU) Maximum Distance (AU) V-relative (km/s) V-infinity (km/s) JD (TDB) Time Uncertainty (minutes) Semi-major axis (km) Semi-minor axis (km) range-LOV angle (deg) N-sigma BP Orbit Ref. Reference Modified
1914-Feb-13 08:48 3_04:37 Jupiter 0.662259798190002 0.606015611577967 0.720607218535718 22.2657264985669 22.2082101926798 2420176.866755276 4597.09423780394 1329528.31010802 565.212494447873 -35.0382093165696 35179.5430625837 T 12 CATAB v2.0c-linF95 2013-Aug-05 10:46:48 2013-Aug-05 10:46
1949-May-05 00:10 1_21:21 Jupiter 0.704405015619536 0.660823960070804 0.749517466786468 19.8109253709658 19.7501350289096 2433041.507174465 2721.44987557462 800059.329182306 728.949407421804 34.7443360204608 25955.298468382 T 12 CATAB v2.0c-linF95 2013-Aug-05 10:46:48 2013-Aug-05 10:46
1973-Jan-18 06:08 1_16:00 Earth 0.190957362970422 0.169919129306011 0.235899637281616 60.4114981125448 60.4112671416948 2441700.755733300 2399.52514681946 3731488.44845036 1122.51760848161 62.607571413307 22214.9551296446 T 12 CATAB v2.0c-linF95 2013-Aug-05 10:46:48 2013-Aug-05 10:46
1984-Aug-14 21:13 12:57 Jupiter 1.81811340426617 1.79897847038884 1.83729598659962 18.0695149587916 18.0437138920642 2445927.383949954 777.254705845903 267852.719089188 902.306864136815 16.7233215427948 25148.5182450596 T 12 CATAB v2.0c-linF95 2013-Aug-05 10:46:48 2013-Aug-05 10:46
1998-Dec-16 18:13 10:18 Earth 0.444401080455359 0.428013278502176 0.460817987233238 63.2728116047883 63.2727168457941 2451164.259270131 618.062066266916 825701.986310696 795.758298623052 -12.5108577623698 17815.6786449531 T 12 CATAB v2.0c-linF95 2013-Aug-05 10:46:48 2013-Aug-05 10:46
2009-Jan-23 05:28 00:01 Jupiter 0.674385116963921 0.674272605245968 0.674498635529446 22.3856956830213 22.3295182797993 2454854.727549188 1.2317370887087 15116.160044127 608.274813476869 -84.0496068664945 58030.8750567252 T 12 CATAB v2.0c-linF95 2013-Aug-05 10:46:48 2013-Aug-05 10:46
2044-Apr-14 05:44 1_04:26 Jupiter 0.645185199646028 0.620315212579777 0.670746383325363 19.9399045197963 19.8739558157295 2467719.738572887 1705.86847958866 481795.014427446 690.543001794485 38.9250773806132 27830.8510969955 T 12 CATAB v2.0c-linF95 2013-Aug-05 10:46:48 2013-Aug-05 10:46
2079-Jul-23 09:07 1_06:42 Jupiter 1.78933499650109 1.74943391108122 1.82954480196198 18.1553087618101 18.1292164926803 2480602.879732894 1841.78679654815 582807.054121932 794.189312366251 23.8653315150871 39742.3300354931 T 12 CATAB v2.0c-linF95 2013-Aug-05 10:46:48 2013-Aug-05 10:46
2139-Mar-23 00:09 2_01:38 Jupiter 0.629448707824284 0.585652651759493 0.675381832205231 20.0365562185352 19.9692831531251 2502394.506313579 2978.06148561238 854357.801137728 663.099244334185 38.1067918360574 27889.9436006425 T 12 CATAB v2.0c-linF95 2013-Aug-05 10:46:48 2013-Aug-05 10:46
2163-Jan-05 11:36 1_17:28 Earth 0.247882808145918 0.197332214527937 0.307466498111221 62.288482059056 62.2883094916371 2511083.983222757 2488.02953148977 3574134.4849093 912.036912366467 -39.5807342799916 25494.8010558898 T 12 CATAB v2.0c-linF95 2013-Aug-05 10:46:48 2013-Aug-05 10:46
2174-Jun-26 10:33 15:25 Jupiter 1.78796933403672 1.76556294946204 1.81046913443078 18.1620981798067 18.1359957422906 2515273.939883464 924.968795243751 318931.696763508 773.429528818182 21.8222622095648 37471.7910667762 T 12 CATAB v2.0c-linF95 2013-Aug-05 10:46:48 2013-Aug-05 10:46
2180-Feb-15 12:14 18:34 Earth 0.495166214260134 0.456796340473028 0.533627665332432 57.9862584508559 57.986165653284 2517334.009620606 1114.34770045423 1904140.2925033 1004.73174426127 9.4017743027131 11821.0528089914 T 12 CATAB v2.0c-linF95 2013-Aug-05 10:46:48 2013-Aug-05 10:46
2198-Dec-05 16:36 01:59 Jupiter 0.670044036020208 0.66859238154182 0.671496646833243 22.5393577946325 22.483202408576 2524202.191797406 118.98380047116 31676.9626521542 383.121013781756 31.3232339380539 48054.2263671801 T 12 CATAB v2.0c-linF95 2013-Aug-05 10:46:48 2013-Aug-05 10:46
Ephemeris | Orbit Diagram | Orbital Elements | Physical Parameters | Close-Approach Data ]
ABOUT SSD CREDITS/AWARDS PRIVACY/COPYRIGHT GLOSSARY LINKS
FirstGov 2014-Apr-21 09:38 UT
(server date/time)  
NASA Home Page
Site Manager:   Donald K. Yeomans
Webmaster  Alan B. Chamberlin